TIME,DELAY(SENSOR),PRES,OXYGEN,RAWTEMP,T(OPTODE),TCPHASE,FLUOR,BETA(BETA700),BETA(BETA412),BETA(BETA440),CDOM,C(CSC),ED(ED412.40),ED(ED444.00),ED(ED489.70),ED(ED554.30),LU(LU411.80),LU(LU443.40),LU(LU489.60),LU(LU554.10),COMP,TILTX,TILTY,CHECK
1373689315,5807,832.5800170898438000,44.2953681945800800,659.7095947265625000,4.6375331878662110,54.3555603027343750,52,101,88,79,80,15417,2147751771,2147422427,2148011693,2147872960,2147641554,2147054884,2148259200,2147195145,2176,3,13,36237
1373692911,5809,896.9799804687500000,47.9801101684570300,666.4306030273438000,4.4160370826721190,53.9067611694335940,52,100,83,78,78,15419,2147755876,2147423862,2148013165,2147875812,2147642624,2147052196,2148260653,2147197193,66,4,13,54907
1373696511,5808,910.8499755859375000,48.6637001037597660,667.5598144531250000,4.3787732124328610,53.8242187500000000,53,98,88,79,79,15420,2147754733,2147423232,2148013476,2147875858,2147641307,2147054180,2148260498,2147197019,251,3,13,62342
1373700111,5808,940.7399902343750000,49.4419403076171900,670.8641967773438000,4.2696461677551270,53.7588691711425800,52,102,83,77,78,15419,2147751396,2147423670,2148013449,2147874724,2147642176,2147052141,2148258715,2147196909,183,3,13,7468
1373703711,5809,943.9400024414062000,49.5157394409179700,670.7572021484375000,4.2731800079345700,53.7470207214355500,53,99,85,79,79,15420,2147753874,2147425490,2148011035,2147874212,2147646838,2147051702,2148261924,2147195529,3510,4,13,31898
1373707311,5809,942.2800292968750000,49.9220199584960940,671.7406005859375000,4.2406830787658690,53.7053794860839840,52,98,83,78,78,15419,2147756178,2147423030,2148011236,2147877778,2147643373,2147056393,2148263579,2147199222,33,4,13,30766
1373710911,5808,965.4099731445312000,51.2394409179687500,675.5609130859375000,4.1143231391906740,53.5696411132812500,53,98,87,78,79,15418,2147751076,2147422217,2148011236,2147877522,2147646774,2147050825,2148263058,2147197650,3581,3,13,47892
1373714511,5809,968.0700073242188000,51.1049194335937500,675.9984741210938000,4.0998377799987790,53.5962791442871100,53,97,87,78,78,15417,2147756114,2147423305,2148010541,2147874578,2147642688,2147048091,2148260580,2147193892,3589,4,13,36814
1373718111,5806,958.4899902343750000,51.1820602416992200,676.4384155273438000,4.0852780342102050,53.5871315002441400,52,99,86,78,80,15416,2147755446,2147424347,2148013558,2147876589,2147644891,2147050413,2148256374,2147197714,215,4,13,33092
1373721711,5807,990.9000244140625000,52.0495986938476560,678.8068847656250000,4.0068278312683105,53.5010681152343750,53,99,88,79,79,15417,2147757220,2147423963,2148013101,2147876955,2147643803,2147050733,2148261824,2147197558,3310,3,13,14993
1373725311,5809,998.8099975585938000,51.8335304260253900,678.2706298828125000,4.0245990753173830,53.5234413146972660,52,98,88,79,79,15417,2147757266,2147425371,2148011675,2147876690,2147645933,2147051849,2148266176,2147199378,106,4,13,28918
1373728911,5810,999.4299926757812000,51.1852188110351560,678.0684204101562000,4.0312981605529785,53.6095390319824200,53,98,87,78,79,15417,2147757248,2147421668,2148014939,2147875684,2147642349,2147055853,2148265344,2147199259,60,4,13,33798
1373732511,5809,1004.7700195312500000,50.6687889099121100,677.3261718750000000,4.0558819770812990,53.6740493774414060,52,97,86,79,79,15416,2147753353,2147423625,2148013961,2147875483,2147643629,2147053824,2148262189,2147200292,161,3,13,20763
1373736111,5809,1007.3099975585938000,51.1126098632812500,677.6895141601562000,4.0438480377197270,53.6124801635742200,52,99,85,80,79,15413,2147756672,2147425270,2148009042,2147877595,2147643885,2147054848,2148266048,2147191734,246,4,13,62409
1373739711,5806,1007.1500244140625000,50.1968498229980500,677.3820800781250000,4.0540289878845215,53.7389793395996100,53,98,92,79,79,15415,2147758546,2147424137,2148011081,2147871835,2147644041,2147053165,2148263524,2147195510,168,4,13,20062
1373743311,5806,1008.0499877929688000,50.4022216796875000,677.0977783203125000,4.0634441375732420,53.7011108398437500,52,99,83,79,80,15413,2147753334,2147424941,2148011072,2147875017,2147643090,2147047296,2148260361,2147197814,117,4,13,41668
1373746911,5811,1010.9000244140625000,50.1734695434570300,676.1409912109375000,4.0951228141784670,53.7234992980957000,52,98,85,79,80,15405,2147757513,2147425956,2148010825,2147875008,2147643849,2147056594,2148262180,2147194505,2558,3,13,539
1373750511,5808,1007.9699707031250000,50.6222801208496100,677.2059936523438000,4.0598602294921875,53.6747398376464840,52,98,86,80,80,15415,2147758281,2147423734,2148013924,2147874450,2147639186,2147050733,2148261814,2147195986,3373,4,13,62663
1373754111,5806,999.8800048828125000,50.5480690002441400,677.3416137695312000,4.0553698539733890,53.6859588623046900,53,100,89,78,79,15413,2147756717,2147425993,2148012608,2147877184,2147642560,2147052077,2148262528,2147197110,3274,4,13,47418
1373757711,5810,1004.5700073242188000,50.6441001892089840,677.4105834960938000,4.0530829429626465,53.6772499084472660,52,97,88,78,78,15414,2147754761,2147427035,2148011035,2147874486,2147641088,2147049490,2148266779,2147199378,835,4,13,9677
1373761311,5809,1001.6599731445312000,50.7793388366699200,678.0150146484375000,4.0330681800842285,53.6619606018066400,53,98,85,78,80,15415,2147755465,2147424548,2148010724,2147872868,2147642249,2147051117,2148264374,2147195520,79,4,13,27386
1373764911,5806,1002.7999877929688000,50.9228401184082000,678.1033935546875000,4.0301380157470700,53.6496810913085940,52,99,87,79,79,15411,2147756635,2147424512,2148010605,2147878080,2147645860,2147053421,2148261220,2147192384,152,4,13,10414
1373768511,5810,1007.2700195312500000,51.5608100891113300,679.5120239257812000,3.9834630489349365,53.5782890319824200,52,98,85,79,79,15414,2147755840,2147423872,2148012288,2147873398,2147643712,2147048740,2148265270,2147196571,3556,4,13,36153
1373772111,5811,1015.4500122070312000,51.0177993774414060,677.2149047851562000,4.0595650672912600,53.6251296997070300,52,99,84,78,79,15414,2147756342,2147425490,2148008182,2147873846,2147648310,2147049718,2148261440,2147201782,3400,4,13,20918
1373775711,5808,1008.6699829101562000,50.1839599609375000,677.0435791015625000,4.0652389526367190,53.7327499389648440,53,99,86,78,80,15413,2147755712,2147424054,2148010285,2147873837,2147643995,2147052726,2148259163,2147195611,3512,4,13,14036
1373779311,5808,1011.9400024414062000,50.1649894714355500,676.8834838867188000,4.0705389976501465,53.7326583862304700,53,97,85,78,79,15415,2147755867,2147425353,2148009691,2147873161,2147643218,2147051501,2148263917,2147193938,104,4,13,49361
1373782911,5808,1012.8900146484375000,50.8223609924316400,677.5852050781250000,4.0473017692565920,53.6550216674804700,53,99,88,77,78,15412,2147752868,2147422729,2148011638,2147871744,2147643510,2147052059,2148258688,2147194002,54,4,13,38043
1373786511,5811,1007.0900268554688000,50.9631500244140600,677.5377197265625000,4.0488739013671875,53.6345291137695300,52,99,87,78,79,15410,2147756077,2147422857,2148011136,2147877878,2147644233,2147055140,2148264932,2147196635,204,4,13,47580
1373790111,5808,1012.4000244140625000,51.4994697570800800,678.2136230468750000,4.0264868736267090,53.5691795349121100,52,97,85,78,79,15408,2147752118,2147424758,2148009014,2147874998,2147640521,2147052461,2148263917,2147199250,3500,4,13,54624
1373793711,5807,1002.9799804687500000,52.3787193298339840,679.7634887695312000,3.9751279354095460,53.4736709594726560,52,98,83,78,79,15413,2147752557,2147423506,2148010962,2147879451,2147645001,2147059739,2148266258,2147198610,270,4,13,21307
1373797311,5810,1003.3800048828125000,53.5488204956054700,680.3856201171875000,3.9545080661773680,53.3231582641601560,53,100,85,78,79,15401,2147755785,2147423442,2148009344,2147876086,2147645412,2147053056,2148262628,2147197238,3397,4,13,23224
1373800911,5809,1001.4500122070312000,53.6004486083984400,680.8859863281250000,3.9379138946533203,53.3261718750000000,51,99,88,79,80,15407,2147752384,2147424411,2148012178,2147875392,2147643392,2147050916,2148260781,2147200018,123,4,13,4116
1373804511,5807,1006.2500000000000000,53.4323997497558600,680.6674194335938000,3.9451620578765870,53.3409309387207000,52,98,83,79,80,15407,2147753810,2147424036,2148012644,2147874706,2147642587,2147051163,2148265654,2147195072,88,4,13,29193
1373808111,5806,1012.3400268554688000,53.1368713378906250,679.6381835937500000,3.9792819023132324,53.3685111999511700,51,98,85,77,78,15403,2147754980,2147424118,2148013293,2147874550,2147642249,2147054738,2148267940,2147198765,308,4,13,7963
1373811711,5808,1015.7700195312500000,51.3084716796875000,677.9260864257812000,4.0360088348388670,53.5919685363769500,52,98,81,78,79,15401,2147753828,2147425325,2148011739,2147873453,2147644452,2147049453,2148264201,2147192630,248,4,13,17301
1373815311,5808,1015.6400146484375000,51.0968017578125000,677.8994750976562000,4.0368919372558590,53.6188087463378900,53,97,83,79,80,15402,2147756854,2147425252,2148012132,2147873142,2147642349,2147051035,2148260754,2147198427,103,4,13,13025
1373818911,5809,1014.9400024414062000,50.3403892517089840,677.6199951171875000,4.0461502075195310,53.7217483520507800,52,97,85,79,78,15400,2147757696,2147428141,2148011446,2147876928,2147642285,2147055826,2148264996,2147196507,3367,4,13,58384
1373822511,5812,1017.9500122070312000,50.0619010925293000,677.4533081054688000,4.0516700744628910,53.7569389343261700,53,98,82,79,80,15401,2147757156,2147426185,2148013796,2147876434,2147641920,2147049115,2148257033,2147201508,94,4,13,9428
1373826111,5807,1017.1099853515625000,50.8242607116699200,677.7297973632812000,4.0425128936767580,53.6514511108398440,52,101,88,80,80,15399,2147755510,2147422107,2148014043,2147876617,2147643830,2147050998,2148265654,2147193188,3280,4,13,64943
1373829711,5808,1015.0700073242188000,50.0308418273925800,677.5983886718750000,4.0468640327453610,53.7596015930175800,53,97,87,79,80,15401,2147754212,2147424054,2148011062,2147874441,2147640877,2147056777,2148262784,2147194788,179,4,13,23066
1373832655,5807,1016.8499755859375000,49.3039512634277340,677.4401245117188000,4.0521068572998050,53.8624000549316400,53,98,85,78,80,15403,2147756178,2147425691,2148010185,2147873261,2147642249,2147051684,2148261019,2147195849,3581,4,13,35978
